Elsenborn, Belgium

4:38 AM CEST on October 17, 2017 (GMT +0200)
Elsenborn

Weather History for EBLB - May, 2013

Change the Weather History Date:

Thursday, May 16, 2013

  Actual Average Record
Temperature  
Mean Temperature 48 °F -  
Max Temperature 55 °F 57 °F 75 °F (2017)
Min Temperature 41 °F 45 °F 30 °F (1999)
Degree Days  
Heating Degree Days 17    
Moisture  
Dew Point 46 °F    
Average Humidity 93    
Maximum Humidity 100    
Minimum Humidity 80    
Precipitation  
Precipitation 0.24 in - - ()
Sea Level Pressure  
Sea Level Pressure 29.48 in    
Wind  
Wind Speed 2 mph ()    
Max Wind Speed 9 mph    
Max Gust Speed -    
Visibility 5.2 miles    
Events Fog , Rain    
Averages and records for this station are not official NWS values.
T = Trace of Precipitation, MM = Missing Value Source: Averaged Metar Reports

Daily Weather History Graph

Daily Weather History Graph

Search for Another Location

Airport or City:

Trip Planner

Search our weather history database for the weather conditions in past years. The results will help you decide how hot, cold, wet, or windy it might be!

Date:

Astronomy

May. 16, 2013 Rise Set
Actual Time 5:46 AM CEST 9:18 PM CEST
Civil Twilight 5:05 AM CEST 9:58 PM CEST
Nautical Twilight 4:11 AM CEST 10:53 PM CEST
Astronomical Twilight 2:55 AM CEST 12:11 AM CEST
Moon 11:14 AM CEST (5/16) 1:21 AM CEST (5/16)
Length of Visible Light 16h 52m
Length of Day
15h 31m
Waxing Crescent, 33% of the Moon is Illuminated
May 16
Waxing Crescent
May 18
First Quarter
May 25
Full
May 31
Last Quarter
Jun 8
New

Hourly Weather History & Observations

Time (CEST) Temp. Windchill Dew Point Humidity Pressure Visibility Wind Dir Wind Speed Gust Speed Precip Events Conditions
12:25 AM 42.8 °F - 41.0 °F 93% 29.62 in 6.2 mi Calm Calm - N/A   Mostly Cloudy
1:25 AM 42.8 °F 41.1 °F 41.0 °F 93% 29.59 in 6.2 mi Variable 3.5 mph - N/A   Mostly Cloudy
2:00 AM 42 °F - 40 °F 90% 29.64 in 11 mi Calm Calm - -   Mostly Cloudy
2:25 AM 41.0 °F - 41.0 °F 100% 29.59 in 6.2 mi Variable 2.3 mph - N/A   Mostly Cloudy
3:25 AM 42.8 °F - 41.0 °F 93% 29.56 in 6.2 mi Variable 1.2 mph - N/A   Mostly Cloudy
4:25 AM 42.8 °F - 41.0 °F 93% 29.56 in 6.2 mi Variable 2.3 mph - N/A   Mostly Cloudy
4:57 AM 42.8 °F - 41.0 °F 93% 29.56 in 6.2 mi Calm Calm - N/A   Light Drizzle
5:00 AM 44 °F - 42 °F 88% 29.58 in 19 mi Calm Calm - - Rain Light Drizzle
5:07 AM 44.6 °F - 41.0 °F 87% 29.56 in 6.2 mi Calm Calm - N/A   Light Drizzle
5:17 AM 44.6 °F - 41.0 °F 87% 29.56 in 6.2 mi Calm Calm - N/A   Light Drizzle
5:25 AM 44.6 °F - 42.8 °F 93% 29.56 in 6.2 mi Calm Calm - N/A Rain Light Rain Showers
5:47 AM 42.8 °F - 42.8 °F 100% 29.56 in 6.2 mi Calm Calm - N/A Rain Light Rain Showers
6:25 AM 44.6 °F - 41.0 °F 87% 29.53 in 6.2 mi Variable 1.2 mph - N/A   Mostly Cloudy
6:37 AM 44.6 °F - 41.0 °F 87% 29.53 in 6.2 mi Calm Calm - N/A   Mostly Cloudy
6:43 AM 44.6 °F - 41.0 °F 87% 29.53 in 6.2 mi Calm Calm - N/A   Mostly Cloudy
6:52 AM 44.6 °F - 41.0 °F 87% 29.53 in 6.2 mi Variable 1.2 mph - N/A   Mostly Cloudy
7:25 AM 44.6 °F 42.2 °F 41.0 °F 87% 29.50 in 6.2 mi NNE 4.6 mph - N/A   Overcast
7:32 AM 46.4 °F 44.3 °F 41.0 °F 81% 29.50 in 6.2 mi NNE 4.6 mph - N/A   Mostly Cloudy
8:00 AM 46 °F - 42 °F 80% 29.53 in 19 mi Calm Calm - -   Clear
8:07 AM 46.4 °F 45.2 °F 41.0 °F 81% 29.50 in 6.2 mi Variable 3.5 mph - N/A   Mostly Cloudy
8:25 AM 46.4 °F 45.2 °F 41.0 °F 81% 29.50 in 6.2 mi Variable 3.5 mph - N/A   Mostly Cloudy
9:25 AM 46.4 °F - 42.8 °F 87% 29.50 in 6.2 mi Variable 2.3 mph - N/A Rain Light Rain Showers
9:57 AM 46.4 °F - 44.6 °F 93% 29.47 in 5.6 mi Variable 2.3 mph - N/A Rain Light Rain Showers
10:17 AM 48.2 °F - 46.4 °F 93% 29.47 in 4.3 mi Variable 2.3 mph - N/A Rain Rain Showers
10:25 AM 48.2 °F - 46.4 °F 93% 29.47 in 4.3 mi Variable 2.3 mph - N/A Rain Rain
10:29 AM 48.2 °F - 46.4 °F 93% 29.47 in 5.0 mi Variable 2.3 mph - N/A Rain Light Rain
10:35 AM 48.2 °F - 46.4 °F 93% 29.47 in 4.3 mi Variable 3.5 mph - N/A Rain Light Rain
10:41 AM 48.2 °F - 46.4 °F 93% 29.47 in 5.0 mi Variable 3.5 mph - N/A   Drizzle
10:47 AM 48.2 °F - 46.4 °F 93% 29.47 in 6.2 mi Variable 2.3 mph - N/A   Light Drizzle
10:57 AM 48.2 °F - 46.4 °F 93% 29.47 in 6.2 mi Variable 2.3 mph - N/A   Mostly Cloudy
11:00 AM 49 °F - 47 °F 89% 29.48 in 7 mi 2.2 mph - - Rain Rain
11:12 AM 48.2 °F - 46.4 °F 93% 29.47 in 6.2 mi Variable 3.5 mph - N/A   Mostly Cloudy
11:18 AM 48.2 °F - 46.4 °F 93% 29.47 in 6.2 mi Variable 3.5 mph - N/A   Mostly Cloudy
11:25 AM 48.2 °F - 46.4 °F 93% 29.47 in 6.2 mi Variable 3.5 mph - N/A   Mostly Cloudy
12:02 PM 51.8 °F - 48.2 °F 88% 29.44 in 6.2 mi NNE 5.8 mph - N/A   Mostly Cloudy
12:25 PM 51.8 °F - 48.2 °F 88% 29.44 in 6.2 mi North 4.6 mph - N/A   Mostly Cloudy
12:37 PM 50.0 °F - 48.2 °F 94% 29.44 in 6.2 mi Variable 3.5 mph - N/A   Mostly Cloudy
12:52 PM 50.0 °F - 48.2 °F 94% 29.44 in 4.3 mi NNW 4.6 mph - N/A   Light Drizzle
12:58 PM 48.2 °F - 46.4 °F 93% 29.44 in 3.1 mi NNW 5.8 mph - N/A   Light Drizzle
1:25 PM 50.0 °F - 48.2 °F 94% 29.44 in - NNW 6.9 mph - N/A Rain Light Rain Showers
2:00 PM 49 °F - 48 °F 93% 29.45 in 2 mi NNW 4.5 mph - - Rain Light Rain Showers
2:17 PM 48.2 °F - 48.2 °F 100% 29.44 in 1.8 mi NW 4.6 mph - N/A Rain Light Rain Showers
2:25 PM 48.2 °F - 46.4 °F 93% 29.44 in - WNW 4.6 mph - N/A Rain Rain
2:37 PM 48.2 °F - 48.2 °F 100% 29.44 in - Variable 3.5 mph - N/A Rain Rain
3:25 PM 50.0 °F - 48.2 °F 94% 29.44 in 3.7 mi Variable 1.2 mph - N/A Rain Light Rain
4:25 PM 51.8 °F - 50.0 °F 94% 29.44 in 5.0 mi Variable 1.2 mph - N/A   Drizzle
4:42 PM 51.8 °F - 51.8 °F 100% 29.42 in 6.2 mi Variable 1.2 mph - N/A   Drizzle
5:00 PM 53 °F - 51 °F 90% 29.42 in 6 mi 2.2 mph - - Rain Drizzle
5:07 PM 53.6 °F - 51.8 °F 94% 29.42 in 6.2 mi Variable 1.2 mph - N/A Rain Light Rain
5:13 PM 53.6 °F - 51.8 °F 94% 29.42 in 6.2 mi Variable 2.3 mph - N/A   Light Drizzle
5:25 PM 53.6 °F - 50.0 °F 88% 29.42 in 6.2 mi Variable 1.2 mph - N/A   Mostly Cloudy
5:52 PM 53.6 °F - 50.0 °F 88% 29.42 in 6.2 mi WSW 4.6 mph - N/A   Mostly Cloudy
5:58 PM 53.6 °F - 50.0 °F 88% 29.42 in 6.2 mi WSW 5.8 mph - N/A   Mostly Cloudy
6:04 PM 53.6 °F - 50.0 °F 88% 29.42 in 6.2 mi WSW 5.8 mph - N/A   Mostly Cloudy
6:17 PM 53.6 °F - 50.0 °F 88% 29.42 in 6.2 mi WSW 5.8 mph - N/A   Mostly Cloudy
6:25 PM 53.6 °F - 50.0 °F 88% 29.42 in 6.2 mi WSW 5.8 mph - N/A   Mostly Cloudy
6:42 PM 53.6 °F - 50.0 °F 88% 29.44 in 6.2 mi WSW 5.8 mph - N/A   Mostly Cloudy
6:52 PM 50.0 °F - 50.0 °F 100% 29.44 in 4.3 mi WNW 9.2 mph - N/A   Mostly Cloudy
6:58 PM 50.0 °F - 50.0 °F 100% 29.44 in 1.7 mi WNW 8.1 mph - N/A   Mostly Cloudy
7:04 PM 50.0 °F - 50.0 °F 100% 29.44 in 1.7 mi NW 5.8 mph - N/A   Mostly Cloudy
7:25 PM 50.0 °F - 48.2 °F 94% 29.44 in 0.5 mi NW 5.8 mph - N/A Fog Fog
7:28 PM 50.0 °F - 48.2 °F 94% 29.44 in 0.9 mi NW 6.9 mph - N/A   Mist
7:34 PM 48.2 °F - 48.2 °F 100% 29.44 in 0.4 mi NW 6.9 mph - N/A Fog Fog
8:00 PM 48 °F - 48 °F 100% 29.46 in 0 mi WNW 8.9 mph - - Fog Fog
8:25 PM 46.4 °F 43.5 °F 46.4 °F 100% 29.44 in 0.1 mi WNW 5.8 mph - N/A Fog Fog
9:25 PM 44.6 °F 40.7 °F 44.6 °F 100% 29.47 in 0.2 mi WNW 6.9 mph - N/A Fog Fog
10:25 PM 44.6 °F 41.4 °F 44.6 °F 100% 29.47 in 0.1 mi West 5.8 mph - N/A Fog Fog
10:34 PM 44.6 °F 41.4 °F 44.6 °F 100% 29.47 in 0.5 mi West 5.8 mph - N/A   Overcast
10:47 PM 44.6 °F 42.2 °F 44.6 °F 100% 29.47 in - West 4.6 mph - N/A   Overcast
10:53 PM 44.6 °F 42.2 °F 44.6 °F 100% 29.47 in 2.5 mi West 4.6 mph - N/A   Overcast
11:00 PM 44 °F - 44 °F 100% 29.51 in 3 mi West 4.5 mph - - Fog Fog
11:25 PM 44.6 °F 42.2 °F 42.8 °F 93% 29.47 in 1.1 mi West 4.6 mph - N/A   Mostly Cloudy